Weather History for KSAC - April, 2013

Change the Weather History Date:

Friday, April 5, 2013

  Actual Average Record
Temperature  
Mean Temperature 59 °F -  
Max Temperature 68 °F 68 °F 85 °F (1957)
Min Temperature 49 °F 45 °F 35 °F (2003)
Degree Days  
Heating Degree Days 6    
Cooling Degree Days 0    
Growing Degree Days 10 (Base 50)    
Moisture  
Dew Point 50 °F    
Average Humidity 74    
Maximum Humidity 93    
Minimum Humidity 55    
Precipitation  
Precipitation 0.00 in 0.05 in 1.01 in (1969)
Month to date precipitation 0.64 0.25  
Year to date precipitation 3.34 10.11  
Since 1 July precipitation 14.63  
Sea Level Pressure  
Sea Level Pressure 30.13 in    
Wind  
Wind Speed 6 mph (SSW)    
Max Wind Speed 14 mph    
Max Gust Speed 20 mph    
Visibility 10 miles    
Events      
T = Trace of Precipitation, MM = Missing Value Source: NWS Daily Summary

Daily Weather History Graph

Daily Weather History Graph

Search for Another Location

Airport or City:

Trip Planner

Search our weather history database for the weather conditions in past years. The results will help you decide how hot, cold, wet, or windy it might be!

Date:

Astronomy

Apr. 05, 2013 Rise Set
Actual Time 6:44 AM PDT 7:33 PM PDT
Civil Twilight 6:17 AM PDT 8:00 PM PDT
Nautical Twilight 5:45 AM PDT 8:32 PM PDT
Astronomical Twilight 5:12 AM PDT 9:05 PM PDT
Moon 3:51 AM PDT (4/5) 3:06 PM PDT (4/5)
Length of Visible Light 13h 43m
Length of Day
12h 49m
Waning Crescent, 22% of the Moon is Illuminated
Apr 5
Waning Crescent
Apr 10
New
Apr 18
First Quarter
Apr 25
Full
May 2
Last Quarter

Hourly Weather History & Observations

Time (PDT) Temp. Dew Point Humidity Pressure Visibility Wind Dir Wind Speed Gust Speed Precip Events Conditions
12:53 AM 54.0 °F 51.1 °F 90% 30.12 in 10.0 mi South 3.5 mph - N/A   Clear
1:53 AM 53.1 °F 50.0 °F 89% 30.12 in 10.0 mi SSW 4.6 mph - N/A   Clear
2:53 AM 54.0 °F 50.0 °F 86% 30.12 in 10.0 mi South 5.8 mph - N/A   Partly Cloudy
3:53 AM 53.1 °F 50.0 °F 89% 30.13 in 10.0 mi South 3.5 mph - N/A   Clear
4:53 AM 53.1 °F 50.0 °F 89% 30.13 in 10.0 mi Calm Calm - N/A   Overcast
5:53 AM 51.1 °F 48.0 °F 89% 30.13 in 10.0 mi ESE 3.5 mph - N/A   Partly Cloudy
6:53 AM 51.1 °F 48.0 °F 89% 30.13 in 10.0 mi South 3.5 mph - N/A   Partly Cloudy
7:53 AM 55.0 °F 51.1 °F 86% 30.14 in 10.0 mi South 5.8 mph - N/A   Clear
8:53 AM 57.0 °F 52.0 °F 83% 30.16 in 10.0 mi SW 5.8 mph - N/A   Clear
9:53 AM 62.1 °F 53.1 °F 72% 30.15 in 10.0 mi South 5.8 mph - N/A   Scattered Clouds
10:17 AM 60.8 °F 51.8 °F 72% 30.15 in 10.0 mi South 6.9 mph - N/A   Mostly Cloudy
10:27 AM 62.6 °F 51.8 °F 68% 30.15 in 10.0 mi SSW 3.5 mph - N/A   Mostly Cloudy
10:53 AM 62.1 °F 48.9 °F 62% 30.16 in 10.0 mi WSW 8.1 mph - N/A   Mostly Cloudy
11:53 AM 63.0 °F 50.0 °F 63% 30.16 in 10.0 mi SSW 10.4 mph - N/A   Scattered Clouds
12:53 PM 66.0 °F 52.0 °F 60% 30.15 in 10.0 mi SW 9.2 mph 17.3 mph N/A   Scattered Clouds
1:53 PM 68.0 °F 51.1 °F 55% 30.13 in 10.0 mi SW 10.4 mph - N/A   Scattered Clouds
2:53 PM 66.9 °F 51.1 °F 57% 30.12 in 10.0 mi SW 11.5 mph 17.3 mph N/A   Mostly Cloudy
3:53 PM 66.9 °F 51.1 °F 57% 30.11 in 10.0 mi SSW 8.1 mph - N/A   Partly Cloudy
4:53 PM 66.0 °F 50.0 °F 56% 30.10 in 10.0 mi SSW 9.2 mph - N/A   Partly Cloudy
5:53 PM 64.0 °F 50.0 °F 60% 30.11 in 10.0 mi SW 12.7 mph 20.7 mph N/A   Clear
6:53 PM 62.1 °F 50.0 °F 65% 30.11 in 10.0 mi SW 11.5 mph - N/A   Clear
7:53 PM 60.1 °F 48.9 °F 67% 30.10 in 10.0 mi SW 8.1 mph - N/A   Clear
8:53 PM 57.9 °F 48.9 °F 72% 30.12 in 10.0 mi SW 11.5 mph - N/A   Clear
9:53 PM 55.9 °F 48.0 °F 75% 30.14 in 10.0 mi SSW 8.1 mph - N/A   Clear
10:53 PM 54.0 °F 48.0 °F 80% 30.15 in 10.0 mi SSW 4.6 mph - N/A   Clear
11:53 PM 53.1 °F 48.0 °F 83% 30.16 in 10.0 mi SSW 5.8 mph - N/A   Clear